Temperature
26 25 24 23 22 21 21 21 21 20 20 20 19 19 19 19 19 19 19 19 18 18 18 18 18 18 18 18 18 18 18 18 18 18 18 18 18 18 18 18 18 18 18
26 25 24 23 22 21 21 21 21 20 20 20 19 19 19 19 19 19 19 19 18 18 18 18 18 18 18 18 18 18 18 18 18 18 18 18 18 19 19 18 18 18 18
26 24 24 23 22 21 21 21 21 20 20 20 19 19 19 19 19 19 19 19 18 18 18 18 18 18 18 18 18 18 18 18 18 18 18 18 18 19 19 19 19 19 18
26 25 24 23 22 21 21 21 21 20 20 20 19 19 19 19 19 19 19 19 18 18 18 18 18 18 18 18 18 18 18 18 18 18 18 18 18 18 18 19 19 19 18
27 25 24 23 23 22 21 21 21 20 20 20 19 19 19 19 19 19 19 18 18 18 18 18 18 18 18 18 18 18 18 18 18 18 18 18 18 18 18 18 18 18 18
27 26 24 23 23 22 21 20 20 20 20 20 19 19 19 19 19 18 18 18 18 18 18 18 18 18 18 18 18 18 18 18 18 18 18 18 18 18 18 18 18 18 18
27 25 24 23 23 22 21 21 20 20 20 20 19 19 19 19 19 19 18 18 18 18 18 18 18 18 18 18 18 18 18 18 18 18 18 18 18 18 18 18 18 18 18
26 25 24 23 22 22 21 21 20 20 20 19 19 19 19 19 18 18 18 18 18 18 18 18 18 18 18 18 18 18 17 17 17 17 17 17 17 18 18 18 18 17 18
26 25 24 23 22 22 21 20 20 20 19 19 19 19 19 18 18 18 18 18 18 18 18 18 18 18 18 18 18 17 17 17 17 17 17 17 17 17 17 17 17 17 17
26 25 24 23 22 21 21 20 20 20 19 19 19 18 18 18 18 18 18 18 18 18 18 18 18 17 17 17 17 17 17 17 17 17 17 17 17 17 17 17 17 17 17
26 25 24 23 22 21 21 20 20 19 19 19 18 18 18 18 18 18 18 18 18 18 17 17 17 17 17 17 17 17 16 16 16 16 16 16 16 16 16 16 16 16 16
26 24 24 22 22 21 20 20 19 19 18 18 18 18 18 18 18 17 17 17 17 17 17 17 17 17 16 16 16 16 16 16 16 16 16 16 16 16 16 16 16 16 16
25 24 23 22 21 21 20 20 19 19 18 18 18 18 18 17 17 17 17 17 17 17 16 16 16 16 16 16 16 16 16 16 16 15 15 15 16 16 16 16 16 15 15
24 24 22 21 21 20 20 19 19 18 18 18 18 18 17 17 17 17 17 17 16 16 16 16 16 16 16 16 15 15 15 15 15 15 15 15 15 15 15 15 15 15 15
24 23 22 21 20 19 19 19 18 18 18 18 18 17 17 17 17 17 16 16 16 16 16 16 15 15 15 15 15 15 14 14 14 14 14 14 14 14 14 14 14 14 14
24 22 21 20 20 19 19 18 18 18 18 17 17 17 17 17 16 16 16 16 16 15 15 15 15 15 15 14 14 14 14 14 14 14 14 14 14 14 14 14 14 14 14
23 22 21 20 19 19 19 18 18 18 17 17 17 16 17 16 16 16 16 15 15 15 15 15 15 14 14 14 14 14 14 14 13 13 13 13 13 13 13 13 13 13 13
22 21 20 20 19 19 18 18 17 17 17 17 16 16 16 16 16 15 15 15 14 14 14 14 14 14 14 14 14 13 13 13 13 13 13 13 13 13 13 13 13 13 12
22 21 20 20 19 18 18 18 17 17 16 16 16 16 15 15 15 15 15 14 14 14 14 14 13 13 13 13 13 13 13 13 12 12 12 12 12 12 12 12 12 12 12
21 20 20 19 19 18 18 17 17 17 16 16 16 15 15 15 15 15 14 14 14 13 13 13 13 13 12 12 12 12 12 12 12 12 12 12 12 12 11 11 11 11 11
20 20 19 19 18 18 17 17 16 16 16 15 15 15 15 15 15 14 14 13 13 13 13 12 12 12 12 12 12 12 12 12 11 11 11 11 11 11 11 11 11 11 11
19 19 18 18 17 17 17 17 16 16 16 15 15 15 14 14 14 14 13 13 12 12 12 12 12 11 11 11 11 11 11 11 11 11 11 11 11 11 11 10 10 10 10
18 18 17 17 17 17 16 16 16 16 15 15 15 14 14 14 13 13 13 12 12 12 12 11 11 11 11 11 11 11 11 10 10 10 10 10 10 10 10 10 10 10 10
17 17 16 16 16 16 16 16 16 15 15 15 14 14 14 13 13 13 12 12 12 12 11 11 11 11 10 10 10 10 10 10 10 10 10 10 10 10 9 9 9 9 9
16 16 16 16 15 15 15 15 15 15 14 14 13 13 13 13 13 12 12 12 12 12 11 11 11 10 10 10 10 10 10 10 10 10 10 9 9 9 9 9 9 9 8
16 15 15 15 15 15 15 15 14 14 14 13 13 12 12 12 12 12 12 11 11 11 11 11 11 10 10 10 10 10 10 9 9 9 9 9 9 9 9 8 8 8 8
Wind_Speed
14 13 13 13 12 10 10 9 8 7 6 5 5 5 4 4 4 4 6 7 7 7 5 3 3 3 2 3 3 2 3 3 3 2 2 3 5 5 5 4 4 6 10
14 13 12 13 13 11 10 9 9 9 8 6 4 3 3 3 4 3 4 7 7 7 7 5 4 4 2 3 3 3 2 3 3 2 1 1 2 3 6 5 5 5 7
16 15 13 12 12 11 10 9 8 8 8 7 5 3 3 2 2 3 4 5 7 8 7 6 4 3 4 4 4 4 5 4 4 3 2 2 2 2 3 5 5 5 5
15 15 14 12 11 11 10 8 8 7 6 6 6 6 5 4 4 3 3 4 6 7 7 6 5 4 4 4 6 6 5 5 5 4 3 3 1 1 2 2 3 4 4
13 14 14 12 10 10 10 8 7 7 6 5 5 4 4 4 3 3 3 3 4 5 6 6 5 6 5 6 6 4 6 5 6 4 3 3 3 3 3 3 2 2 3
12 12 12 11 9 9 8 8 8 7 6 6 5 5 4 3 3 3 2 3 3 4 5 6 5 5 5 6 6 6 6 6 6 4 3 3 2 3 3 3 4 4 4
12 12 12 11 9 9 8 8 8 6 6 6 5 4 4 4 3 3 3 3 3 3 4 5 4 5 5 6 6 6 6 6 6 5 4 4 4 3 3 3 3 3 3
10 11 12 11 9 9 8 7 7 6 6 5 5 4 3 3 3 3 3 2 2 2 2 3 3 3 4 5 4 4 5 5 5 6 5 4 4 4 3 3 3 3 3
12 11 11 11 9 8 8 7 7 6 5 4 4 3 2 2 2 1 1 1 2 2 0 1 2 2 2 3 3 3 3 3 4 5 5 5 4 3 3 2 2 3 3
11 12 12 11 10 8 7 7 7 6 4 4 3 3 2 2 1 0 0 1 1 2 2 2 1 1 1 1 1 2 2 2 3 3 4 4 4 3 3 3 2 3 4
11 11 11 11 10 9 9 8 7 6 4 3 3 3 3 2 2 2 2 2 2 2 2 2 2 2 1 1 1 1 2 3 3 3 3 3 4 3 3 2 2 2 2
11 12 12 11 10 9 9 8 7 6 5 4 5 4 4 4 3 3 3 3 3 3 2 2 2 2 2 2 1 1 1 1 1 2 2 2 3 3 2 2 2 1 1
12 12 11 10 9 9 8 8 7 7 6 6 5 5 5 5 4 4 4 4 4 4 4 4 4 4 4 3 2 2 2 2 2 2 2 2 2 2 1 1 1 1 1
12 12 11 10 9 9 8 8 8 8 7 6 6 6 5 5 5 5 5 5 5 5 5 5 5 5 5 5 4 4 3 3 4 3 3 3 3 2 2 1 1 1 1
12 12 11 10 10 9 8 8 8 7 7 7 7 7 6 6 5 5 5 5 6 6 6 6 6 5 5 6 5 4 5 5 5 4 5 5 6 8 5 3 3 2 2
11 12 12 11 10 10 9 8 8 7 7 7 7 7 6 6 6 6 6 6 6 6 6 7 7 7 6 8 9 7 5 5 5 5 5 4 6 8 9 9 9 6 3
12 12 11 11 10 9 9 8 8 8 7 7 7 7 6 6 6 6 7 7 6 7 6 7 7 7 9 10 9 9 6 5 5 5 5 5 5 6 5 7 8 9 9
12 12 11 11 10 10 9 8 9 8 8 7 7 7 6 7 7 7 7 7 6 6 6 7 7 7 9 11 10 9 6 6 6 7 6 6 6 6 5 6 8 9 8
10 11 11 11 11 11 10 9 8 8 8 8 7 7 6 6 6 7 6 6 6 6 7 6 7 8 8 11 10 7 5 6 7 7 8 7 7 8 7 7 7 8 7
10 10 11 11 10 10 10 9 9 8 8 8 7 7 7 7 6 6 6 5 5 6 7 8 8 8 8 11 12 7 5 6 7 7 8 11 10 10 9 6 6 7 5
11 11 11 10 9 9 9 9 9 8 8 8 8 8 7 7 6 5 5 5 6 7 7 8 8 8 9 11 13 12 6 6 7 7 7 7 11 11 11 9 7 5 3
11 11 10 10 9 9 9 10 9 9 9 8 9 8 7 7 7 6 6 5 5 6 6 6 7 7 7 9 11 13 12 10 8 7 6 6 10 12 12 9 10 10 7
10 10 11 11 9 9 9 10 10 9 9 9 9 8 8 7 6 6 5 4 3 4 5 5 6 6 6 7 11 12 12 11 8 6 7 7 6 6 7 9 10 8 6
9 10 11 11 9 9 9 9 10 9 10 9 9 8 8 8 7 6 5 5 4 4 4 5 5 5 5 5 4 4 6 7 6 5 5 5 5 5 5 6 6 6 6
8 9 10 10 10 10 10 10 9 10 10 9 8 8 8 9 9 9 8 7 6 5 4 5 5 5 5 3 5 4 4 3 4 3 2 2 3 4 5 5 6 6 6
8 9 10 10 11 10 10 9 8 9 9 8 8 7 8 8 8 9 9 13 11 12 13 11 8 6 6 4 6 7 7 7 7 4 4 5 4 5 5 4 4 5 5
Wind_Direction
171 164 164 165 163 161 166 171 178 170 179 188 191 198 206 209 211 207 192 193 205 200 207 222 176 207 219 197 198 206 221 234 236 247 239 228 214 204 203 213 203 198 196
164 162 168 170 168 169 173 176 183 179 188 195 204 201 203 215 214 215 185 200 203 204 205 206 208 200 212 224 226 219 243 253 232 221 236 272 259 237 216 203 207 206 193
168 168 174 173 171 173 180 185 183 179 189 189 188 204 189 224 227 210 197 203 205 211 216 201 213 199 210 213 219 217 221 241 253 228 202 221 238 260 234 214 207 196 192
169 170 175 177 178 176 178 177 173 175 182 188 195 195 197 209 221 218 198 198 210 217 216 208 210 215 223 212 220 219 223 229 247 249 226 228 233 234 285 268 224 204 201
171 169 173 172 175 175 174 171 169 178 182 192 202 203 213 212 216 208 182 198 210 222 223 216 211 209 224 225 226 225 223 225 234 245 235 235 246 228 221 253 262 245 218
161 160 163 161 169 168 164 162 164 174 178 190 201 204 215 217 222 224 194 206 214 215 220 223 216 211 221 229 229 227 228 232 241 246 254 238 222 232 228 231 238 241 238
148 150 153 157 161 160 160 157 161 166 175 187 198 205 215 218 221 238 228 232 234 221 222 228 216 219 222 227 226 223 235 232 232 234 244 247 238 236 230 224 237 245 248
146 151 153 152 155 158 153 152 156 163 173 181 188 196 205 219 227 229 240 244 265 254 227 222 223 228 232 238 226 226 227 229 229 238 239 244 252 255 247 234 223 246 265
151 155 150 148 151 154 149 150 147 149 158 163 162 166 186 221 244 220 230 273 289 292 311 220 237 249 250 254 244 231 233 228 231 240 241 243 254 261 262 256 227 210 241
153 147 145 145 144 151 142 136 134 133 133 135 148 161 165 175 160 70 54 345 5 357 1 5 352 314 301 283 253 257 240 229 241 242 247 251 259 258 256 252 252 226 216
144 142 137 138 140 142 136 131 130 128 127 129 123 108 110 106 92 74 55 47 39 31 22 19 15 359 357 347 289 263 256 247 254 256 251 253 257 264 262 254 238 237 212
133 134 131 132 135 132 130 129 129 130 127 120 115 105 101 96 88 78 64 59 55 46 40 35 30 16 17 28 24 342 338 307 301 304 295 285 280 278 284 287 261 251 210
130 129 128 128 128 127 126 126 128 127 126 121 114 104 96 91 85 79 72 67 65 55 43 43 38 29 25 31 31 30 26 11 10 356 345 349 353 338 329 334 321 284 262
133 134 131 129 126 123 122 124 124 122 123 116 108 101 92 89 86 81 71 66 64 60 48 43 41 40 36 33 32 32 34 33 32 24 23 21 23 18 358 5 343 317 316
142 139 137 133 131 128 128 125 118 114 114 111 106 100 95 89 86 82 75 68 64 62 55 50 45 39 41 37 34 35 40 40 39 38 40 47 63 61 44 39 24 11 8
145 141 139 138 136 135 134 126 118 115 112 108 104 100 95 89 86 88 85 78 72 66 60 54 51 49 44 34 41 45 45 46 46 47 47 56 62 70 66 63 56 44 28
148 144 143 142 139 137 133 131 126 124 116 109 103 98 94 87 78 79 78 73 69 68 66 63 62 58 39 34 42 47 51 52 48 47 43 46 54 59 66 64 59 51 49
145 143 141 138 138 136 132 129 129 127 120 113 105 100 96 90 81 78 76 72 72 70 70 68 66 62 44 35 37 42 59 59 55 52 50 52 42 41 56 73 67 58 49
135 139 143 141 138 139 137 133 129 126 119 113 108 103 100 94 89 86 82 79 80 79 78 74 69 63 46 33 33 46 71 71 64 58 51 50 46 39 53 73 76 72 65
129 133 134 131 132 134 136 135 128 121 117 112 105 100 97 96 92 87 85 86 85 86 82 74 67 61 50 35 31 37 74 79 74 65 55 47 45 43 49 64 69 68 62
126 126 126 126 125 128 130 125 120 115 113 110 105 100 99 99 93 88 85 88 93 93 88 83 73 62 52 42 37 37 54 74 75 67 58 46 46 51 52 55 57 53 51
127 125 122 121 122 124 126 122 118 116 114 111 105 98 93 93 94 89 89 89 94 99 95 90 81 66 53 49 48 52 54 61 74 74 69 58 52 54 52 51 39 35 40
129 130 128 124 124 124 125 126 123 122 119 115 109 103 95 87 89 94 97 100 101 103 102 97 89 77 65 58 60 66 65 65 72 75 74 69 58 49 53 53 41 37 39
133 133 133 131 126 123 121 121 126 128 125 120 115 112 107 97 79 70 70 67 55 72 86 89 93 89 71 54 46 74 80 83 80 80 76 60 47 47 42 46 50 51 46
133 134 134 131 127 122 120 124 128 132 129 127 125 120 110 103 85 71 56 66 54 49 72 77 76 85 79 39 26 51 61 57 61 58 82 78 69 68 65 61 52 45 44
137 135 132 130 130 128 126 129 132 135 135 136 137 134 128 122 114 105 86 58 62 61 65 68 81 78 81 72 53 49 43 41 35 47 70 65 56 60 63 61 59 53 41
Height
1526 1529 1532 1535 1537 1539 1540 1542 1544 1546 1547 1549 1551 1552 1554 1555 1557 1558 1559 1560 1561 1562 1563 1565 1567 1568 1569 1570 1571 1572 1573 1574 1575 1576 1576 1576 1576 1576 1576 1577 1578 1579 1580
1523 1527 1530 1533 1535 1537 1538 1540 1542 1544 1545 1547 1549 1551 1552 1554 1555 1556 1556 1557 1559 1560 1562 1563 1564 1566 1567 1568 1569 1570 1571 1572 1573 1574 1574 1574 1575 1574 1575 1575 1576 1577 1578
1519 1524 1528 1531 1533 1535 1537 1539 1540 1542 1544 1545 1547 1549 1550 1552 1553 1553 1554 1555 1556 1558 1559 1561 1562 1564 1565 1566 1567 1568 1569 1570 1571 1572 1572 1572 1572 1572 1572 1573 1574 1574 1575
1516 1521 1525 1529 1531 1533 1535 1537 1539 1540 1542 1543 1545 1546 1547 1549 1550 1551 1552 1553 1554 1556 1557 1558 1560 1561 1562 1563 1564 1565 1566 1567 1568 1569 1569 1570 1570 1571 1570 1571 1571 1571 1572
1513 1518 1522 1526 1530 1532 1534 1535 1537 1538 1540 1541 1543 1544 1546 1547 1548 1549 1550 1551 1552 1553 1554 1556 1557 1558 1559 1560 1561 1562 1563 1564 1565 1566 1567 1567 1568 1568 1569 1568 1568 1569 1569
1511 1516 1521 1525 1528 1531 1532 1534 1534 1536 1538 1539 1541 1542 1544 1545 1546 1547 1548 1549 1550 1551 1551 1553 1554 1555 1556 1557 1558 1558 1559 1560 1561 1562 1563 1564 1565 1565 1565 1565 1565 1565 1565
1510 1515 1520 1523 1526 1529 1531 1532 1533 1534 1536 1537 1539 1540 1542 1543 1544 1545 1546 1547 1548 1548 1549 1550 1550 1551 1552 1553 1554 1555 1556 1557 1558 1558 1559 1560 1561 1561 1562 1562 1562 1562 1562
1510 1514 1518 1522 1525 1528 1530 1531 1532 1533 1534 1535 1536 1538 1540 1541 1542 1543 1544 1545 1545 1546 1546 1547 1547 1548 1549 1549 1550 1551 1552 1553 1554 1554 1555 1556 1557 1558 1558 1559 1559 1559 1559
1509 1513 1517 1520 1524 1527 1529 1530 1531 1532 1533 1534 1535 1537 1539 1540 1541 1541 1542 1543 1543 1544 1544 1544 1544 1544 1545 1546 1546 1547 1548 1549 1549 1550 1551 1552 1552 1553 1554 1554 1555 1556 1555
1508 1513 1516 1519 1523 1526 1528 1530 1531 1532 1533 1534 1535 1537 1538 1539 1539 1540 1540 1541 1541 1542 1542 1542 1542 1542 1542 1542 1543 1543 1544 1545 1546 1546 1547 1547 1548 1549 1549 1550 1551 1551 1552
1508 1512 1516 1520 1523 1526 1528 1529 1530 1532 1533 1534 1535 1537 1537 1538 1538 1538 1539 1539 1539 1540 1540 1540 1540 1540 1540 1540 1540 1541 1541 1541 1542 1543 1543 1543 1543 1544 1545 1545 1546 1546 1548
1507 1512 1516 1520 1523 1525 1527 1529 1530 1532 1533 1534 1535 1536 1537 1537 1538 1538 1538 1538 1538 1538 1538 1538 1538 1538 1538 1538 1538 1538 1538 1538 1539 1539 1539 1539 1540 1540 1541 1541 1541 1542 1543
1508 1513 1517 1520 1523 1525 1527 1529 1530 1532 1533 1534 1535 1536 1537 1537 1538 1538 1538 1538 1538 1538 1538 1537 1537 1536 1536 1536 1536 1536 1536 1536 1536 1536 1536 1536 1536 1537 1537 1537 1538 1538 1539
1510 1513 1517 1521 1523 1525 1527 1529 1531 1532 1534 1535 1535 1536 1537 1537 1538 1538 1538 1538 1538 1537 1537 1537 1536 1536 1535 1535 1535 1535 1535 1534 1534 1534 1534 1534 1534 1534 1534 1534 1535 1535 1536
1510 1514 1518 1521 1524 1526 1528 1530 1532 1533 1534 1535 1536 1536 1537 1537 1538 1538 1538 1538 1538 1537 1537 1537 1536 1535 1535 1534 1534 1534 1533 1533 1532 1532 1532 1532 1532 1532 1532 1532 1533 1533 1534
1511 1515 1518 1521 1524 1526 1529 1530 1532 1533 1534 1536 1537 1537 1537 1538 1538 1538 1538 1538 1538 1538 1537 1537 1536 1535 1535 1535 1534 1533 1533 1532 1532 1531 1531 1531 1531 1531 1531 1531 1531 1531 1531
1510 1515 1518 1521 1524 1526 1528 1530 1532 1533 1535 1536 1537 1538 1538 1538 1539 1539 1539 1539 1538 1538 1538 1537 1537 1536 1535 1535 1534 1533 1532 1532 1531 1531 1531 1531 1531 1531 1531 1531 1530 1530 1529
1510 1514 1518 1521 1524 1526 1528 1530 1532 1534 1535 1536 1537 1538 1539 1539 1539 1539 1539 1539 1539 1539 1539 1538 1538 1537 1536 1536 1535 1534 1533 1532 1532 1532 1531 1532 1532 1532 1532 1531 1530 1530 1529
1510 1514 1518 1521 1524 1526 1528 1530 1532 1534 1535 1536 1538 1538 1539 1539 1540 1540 1540 1540 1540 1540 1540 1540 1539 1538 1538 1537 1536 1535 1534 1534 1533 1533 1533 1533 1533 1533 1533 1532 1532 1531 1531
1511 1515 1518 1521 1524 1526 1528 1530 1532 1534 1536 1537 1538 1539 1539 1540 1540 1540 1540 1541 1541 1541 1541 1541 1541 1540 1539 1539 1538 1537 1536 1536 1535 1535 1535 1535 1535 1535 1535 1534 1534 1534 1534
1512 1515 1518 1521 1523 1526 1528 1530 1532 1534 1536 1537 1538 1539 1540 1540 1541 1541 1541 1542 1542 1543 1543 1542 1542 1542 1541 1541 1540 1540 1539 1538 1538 1538 1538 1537 1537 1537 1537 1537 1537 1537 1537
1513 1515 1518 1520 1523 1525 1527 1529 1531 1533 1535 1537 1538 1539 1540 1541 1541 1542 1542 1543 1544 1544 1544 1544 1544 1544 1543 1543 1542 1542 1541 1541 1540 1540 1540 1540 1540 1540 1540 1540 1540 1540 1540
1513 1515 1518 1520 1523 1525 1527 1529 1531 1533 1535 1536 1538 1539 1540 1541 1542 1543 1544 1544 1545 1545 1546 1546 1546 1545 1545 1545 1545 1545 1544 1544 1543 1543 1543 1543 1543 1543 1543 1543 1542 1542 1542
1513 1516 1518 1520 1522 1524 1526 1528 1530 1532 1535 1536 1538 1539 1541 1542 1543 1544 1544 1545 1546 1546 1547 1547 1547 1547 1547 1546 1546 1547 1547 1547 1546 1546 1546 1546 1546 1546 1546 1545 1545 1545 1544
1513 1515 1518 1520 1522 1524 1526 1528 1530 1532 1534 1536 1538 1540 1541 1542 1543 1544 1545 1546 1546 1547 1548 1548 1548 1548 1548 1548 1549 1549 1549 1549 1549 1549 1549 1549 1549 1549 1548 1548 1547 1547 1547
1513 1515 1517 1519 1521 1524 1526 1528 1530 1532 1534 1536 1538 1540 1541 1543 1544 1545 1546 1547 1548 1549 1549 1549 1549 1549 1550 1550 1550 1551 1551 1551 1552 1551 1551 1551 1551 1551 1551 1550 1550 1549 1549